Вернуться в каталог

STARLINK-5678

АктивенСвязьVLEO
NORAD 55460·PAYLOAD·🇺🇸 United States

Запущен Feb 2, 2023 с Cape Canaveral Space Force Station

Loading…

Ближайшие Пролёты (ближайшие 24 часа)

TLE

СвежийSource: CelesTrak SupGP

Эпоха: Sep 15, 2026, 03:02 UTC

1 55460C 23015M   26258.12687500  .00033292  00000+0  12061-2 0  2581
2 55460  43.0028 338.9914 0001445 257.3742  69.8056 15.27555256    18

Отслеживайте STARLINK-5678 в реальном времени с AllMySat

Download on the App Store